Estación Meteorológica de la Universidad de Murcia
Estación Meteorológica de la Universidad de Murcia
Universidad de Murcia
 

Temperatura ambienteTemperatura ambiente

 

Máxima: 13,9 ºC a las 13:42:00 del día 20/01/2019
Mínima: 7,5 ºC a las 07:27:00 del día 20/01/2019

||Temperatura máxima últimos meses|| ---- ||Temperatura mínima últimos meses||


Temperatura máxima

  • 1 - 13,9 ºC del día 20/01/2019
  • 2 - 16,5 ºC del día 19/01/2019
  • 3 - 15,2 ºC del día 18/01/2019
  • 4 - 14,9 ºC del día 17/01/2019
  • 5 - 17,4 ºC del día 16/01/2019
  • 6 - 17,6 ºC del día 15/01/2019
  • 7 - 22 ºC del día 14/01/2019
  • 8 - 18,6 ºC del día 13/01/2019
  • 9 - 14,9 ºC del día 12/01/2019
  • 10 - 12,7 ºC del día 11/01/2019
  • 11 - 13,7 ºC del día 10/01/2019
  • 12 - 19,1 ºC del día 09/01/2019
  • 13 - 16,7 ºC del día 08/01/2019
  • 14 - 17,2 ºC del día 07/01/2019
  • 15 - 19,1 ºC del día 06/01/2019
  • 16 - 17,9 ºC del día 05/01/2019
  • 17 - 16,8 ºC del día 04/01/2019
  • 18 - 14,2 ºC del día 03/01/2019
  • 19 - 20,5 ºC del día 02/01/2019
  • 20 - 20,3 ºC del día 01/01/2019
  • 21 - 19,9 ºC del día 31/12/2018
  • 22 - 16,8 ºC del día 30/12/2018
  • 23 - 15,3 ºC del día 29/12/2018
  • 24 - 15,8 ºC del día 28/12/2018
  • 25 - 16,4 ºC del día 27/12/2018
  • 26 - 17,8 ºC del día 26/12/2018
  • 27 - 17,1 ºC del día 25/12/2018
  • 28 - 20,9 ºC del día 24/12/2018
  • 29 - 19,5 ºC del día 23/12/2018
  • 30 - 19,8 ºC del día 22/12/2018
  • 31 - 18,3 ºC del día 21/12/2018
  • 32 - 17 ºC del día 20/12/2018
  • 33 - 19,7 ºC del día 19/12/2018
  • 34 - 16,3 ºC del día 18/12/2018
  • 35 - 18,4 ºC del día 17/12/2018
  • 36 - 20,5 ºC del día 16/12/2018
  • 37 - 19,4 ºC del día 15/12/2018
  • 38 - 15,6 ºC del día 14/12/2018
  • 39 - 14,9 ºC del día 13/12/2018
  • 40 - 19,9 ºC del día 12/12/2018
  • 41 - 17,5 ºC del día 11/12/2018
  • 42 - 19,7 ºC del día 10/12/2018
  • 43 - 24,2 ºC del día 09/12/2018
  • 44 - 20,8 ºC del día 08/12/2018
  • 45 - 21 ºC del día 07/12/2018
  • 46 - 24 ºC del día 06/12/2018
  • 47 - 23,7 ºC del día 05/12/2018
  • 48 - 23,4 ºC del día 04/12/2018
  • 49 - 23,9 ºC del día 03/12/2018
  • 50 - 21,6 ºC del día 02/12/2018
  • 51 - 18,4 ºC del día 01/12/2018
  • 52 - 19,3 ºC del día 30/11/2018
  • 53 - 20,1 ºC del día 29/11/2018
  • 54 - 20,8 ºC del día 28/11/2018
  • 55 - 19,5 ºC del día 27/11/2018
  • 56 - 17,9 ºC del día 26/11/2018
  • 57 - 20,7 ºC del día 25/11/2018
  • 58 - 17,6 ºC del día 24/11/2018
  • 59 - 17,9 ºC del día 23/11/2018
  • 60 - 16 ºC del día 22/11/2018

||Volver al inicio de la página||


Temperatura mínima

  • 1 - 7,5 ºC del día 20/01/2019
  • 2 - 6,2 ºC del día 19/01/2019
  • 3 - 4,4 ºC del día 18/01/2019
  • 4 - 6,6 ºC del día 17/01/2019
  • 5 - 5,8 ºC del día 16/01/2019
  • 6 - 5,7 ºC del día 15/01/2019
  • 7 - 3,8 ºC del día 14/01/2019
  • 8 - 1,5 ºC del día 13/01/2019
  • 9 - 0,100000000000001 ºC del día 12/01/2019
  • 10 - 0 ºC del día 11/01/2019
  • 11 - 4,1 ºC del día 10/01/2019
  • 12 - 6,9 ºC del día 09/01/2019
  • 13 - 4,2 ºC del día 08/01/2019
  • 14 - 4,1 ºC del día 07/01/2019
  • 15 - 5,6 ºC del día 06/01/2019
  • 16 - 2,5 ºC del día 05/01/2019
  • 17 - 3,5 ºC del día 04/01/2019
  • 18 - 4,7 ºC del día 03/01/2019
  • 19 - 3,6 ºC del día 02/01/2019
  • 20 - 3,4 ºC del día 01/01/2019
  • 21 - 4,1 ºC del día 31/12/2018
  • 22 - 6,1 ºC del día 30/12/2018
  • 23 - 9,7 ºC del día 29/12/2018
  • 24 - 6,8 ºC del día 28/12/2018
  • 25 - 6,3 ºC del día 27/12/2018
  • 26 - 6,9 ºC del día 26/12/2018
  • 27 - 6,6 ºC del día 25/12/2018
  • 28 - 7 ºC del día 24/12/2018
  • 29 - 7,2 ºC del día 23/12/2018
  • 30 - 7,6 ºC del día 22/12/2018
  • 31 - 5,6 ºC del día 21/12/2018
  • 32 - 9,6 ºC del día 20/12/2018
  • 33 - 7,2 ºC del día 19/12/2018
  • 34 - 5,4 ºC del día 18/12/2018
  • 35 - 7,7 ºC del día 17/12/2018
  • 36 - 8,5 ºC del día 16/12/2018
  • 37 - 6,5 ºC del día 15/12/2018
  • 38 - 10,6 ºC del día 14/12/2018
  • 39 - 9 ºC del día 13/12/2018
  • 40 - 10,1 ºC del día 12/12/2018
  • 41 - 7,1 ºC del día 11/12/2018
  • 42 - 8,7 ºC del día 10/12/2018
  • 43 - 8,6 ºC del día 09/12/2018
  • 44 - 11,6 ºC del día 08/12/2018
  • 45 - 7,6 ºC del día 07/12/2018
  • 46 - 10,2 ºC del día 06/12/2018
  • 47 - 8,7 ºC del día 05/12/2018
  • 48 - 10,1 ºC del día 04/12/2018
  • 49 - 9 ºC del día 03/12/2018
  • 50 - 8,8 ºC del día 02/12/2018
  • 51 - 7 ºC del día 01/12/2018
  • 52 - 7,5 ºC del día 30/11/2018
  • 53 - 6,5 ºC del día 29/11/2018
  • 54 - 5,7 ºC del día 28/11/2018
  • 55 - 10 ºC del día 27/11/2018
  • 56 - 11,2 ºC del día 26/11/2018
  • 57 - 6,5 ºC del día 25/11/2018
  • 58 - 7,8 ºC del día 24/11/2018
  • 59 - 10,8 ºC del día 23/11/2018
  • 60 - 10,7 ºC del día 22/11/2018

 

|| Humedad relativa|| Velocidad y dirección del viento|| Precipitación|| Radiación Solar Global y PAR|| Temperatura y humedad del suelo|| Presión atmosférica|| Más información|| Volver a la página principal|| Volver al inicio de la página||


Estación Meteorológica de la Universidad de Murcia
http://estacion.um.es/
Informacion actualizada a: 21/01/2019 a las 20:45:00